TUBIN
1 48900U 21059X   25252.25434554  .00067862  00000-0  57082-3 0  9990
2 48900  97.6770  69.5274 0002832 244.9460 115.1507 15.69662030234373
LEDSAT
1 49069U 21073D   25252.15780621  .00191504  00000-0  10590-2 0  9994
2 49069  97.3787 338.4570 0003579 119.6364 240.5260 15.79066577225781
CUTE
1 49263U 21088D   25252.16121880  .00022983  00000-0  39339-3 0  9990
2 49263  97.4435 331.3070 0005149 250.6454 109.4242 15.51242881218606
TeikyoSat 4
1 49396U 21102B   25252.13256297  .00001849  00000-0  12395-3 0  9993
2 49396  97.4030 287.2441 0012658 172.3822 187.7601 15.08006120210344
Z-Sat
1 49399U 21102E   25252.24371948  .00004246  00000-0  22898-3 0  9992
2 49399  97.3727 291.0314 0019002 142.1758 218.0814 15.15144725210856
KOSEN 1
1 49402U 21102H   25252.06153660  .00007032  00000-0  31452-3 0  9998
2 49402  97.3623 294.9828 0017119 116.8819 243.4169 15.21476498211196
HO-113
1 50466U 21131B   25252.28689833  .00000583  00000-0  19554-3 0  9995
2 50466  98.5084 341.1877 0003646 206.4905 153.6098 14.40916079194651
SNUGLITE 2
1 52899U 22065F   25252.11813425  .00001397  00000-0  27921-3 0  9993
2 52899  98.1818  33.2749 0007578 177.7243 182.3995 14.63426907169876
UmKA 1 (RS40S)
1 57172U 23091G   25252.23385970  .00005960  00000-0  30981-3 0  9994
2 57172  97.5493 307.1527 0014395  23.7458 336.4436 15.16362822121365
CubeBel-2 (EU11S)
1 57175U 23091K   25252.27051147  .00008833  00000-0  40089-3 0  9999
2 57175  97.5490 308.9312 0012028  30.2524 329.9403 15.20977432121482
ENSO
1 58470U 23185J   25252.30103168  .00107387  00000-0  92890-3 0  9998
2 58470  97.3632 331.0410 0004396 120.6701 239.4994 15.68841596 99345
SONATE-2
1 59112U 24043Q   25252.28510561  .00020185  00000-0  52589-3 0  9993
2 59112  97.5251  25.5459 0010816 143.9129 216.2848 15.38842520 84421
MO-122
1 60209U 24125G   25252.14288474  .00020495  00000-0  52282-3 0  9997
2 60209  97.2682 102.8816 0017899 162.6106 197.5756 15.39374376 66027
GRBBeta
1 60237U 24128C   25252.08187888  .00004087  00000-0  30407-3 0  9995
2 60237  61.9904 120.3501 0056631  77.3145 283.4270 15.03414352 63956
Curium One
1 60242U 24128H   25252.21839805  .00007524  00000-0  50319-3 0  9992
2 60242  61.9798 116.7038 0056372  74.1422 286.5874 15.06473656 64031
ROBUSTA-3A
1 60243U 24128J   25252.11829234  .00007276  00000-0  49447-3 0  9991
2 60243  61.9870 118.2039 0055925  71.6125 289.1037 15.05941759 64006
CatSat
1 60246U 24125J   25252.10685936  .00018199  00000-0  55664-3 0  9993
2 60246  97.2493 100.9759 0041519 126.5504 233.9572 15.33032334 63993
HYPERVIEW-1G (RS66S)
1 61772U 24199AP  25252.26709195  .00023382  00000-0  59881-3 0  9995
2 61772  97.3375 121.0899 0011259 214.4818 145.5698 15.39331738 91040
AO-123
1 61781U 24199AY  25252.27375812  .00006940  00000-0  24413-3 0  9995
2 61781  97.3398 118.8609 0013953 227.8937 132.1118 15.29566987 90897
ZIMSAT 2
1 61783U 24199BA  25252.24929249  .00051283  00000-0  97381-3 0  9997
2 61783  97.3333 122.5700 0010382 204.3512 155.7249 15.48069601 94290
HADES-R (SO-124)
1 62690U 25009CK  25252.17572961  .00046714  00000-0  13181-2 0  9991
2 62690  97.4026 332.9941 0003113 144.4956 215.6495 15.36243476 36175
HYDRA-T
1 62692U 25009CM  25252.20618789  .00049236  00000-0  13684-2 0  9996
2 62692  97.4029 333.1059 0002823 142.4509 217.6933 15.36702107 36183
JINJUSat 1B
1 63210U 25052A   25251.94401076  .00011481  00000-0  49581-3 0  9997
2 63210  97.4276 144.9606 0004722  32.6862 327.4666 15.22652318 27144
NUSHSAT 1
1 63211U 25052B   25252.24778215  .00014197  00000-0  60364-3 0  9993
2 63211  97.4267 145.2946 0004904  36.1454 324.0114 15.23129432 27197
TEVEL2-4
1 63213U 25052D   25252.21610327  .00012608  00000-0  54295-3 0  9992
2 63213  97.4181 144.9927 0004772  53.7391 306.4286 15.22723556 27186
TEVEL2-5
1 63214U 25052E   25252.28401306  .00012401  00000-0  53465-3 0  9994
2 63214  97.4183 145.0552 0004746  53.3696 306.7976 15.22689784 27194
TEVEL2-6
1 63215U 25052F   25252.22284207  .00012545  00000-0  54148-3 0  9996
2 63215  97.4180 144.9871 0004848  54.2131 305.9556 15.22647345 27182
TEVEL2-1
1 63217U 25052H   25252.24783249  .00013002  00000-0  56519-3 0  9993
2 63217  97.4160 144.8963 0005255  60.9879 299.1884 15.22393753 27188
TEVEL2-3
1 63218U 25052J   25252.24792569  .00013136  00000-0  57083-3 0  9994
2 63218  97.4160 144.8983 0005335  61.4037 298.7736 15.22402469 27188
TEVEL2-2
1 63219U 25052K   25251.98561723  .00013071  00000-0  56836-3 0  9994
2 63219  97.4160 144.6372 0005340  61.9327 298.2448 15.22382721 27141
TEVEL2-9
1 63237U 25052AD  25252.25716588  .00012406  00000-0  55991-3 0  9998
2 63237  97.4223 144.7298 0009751  63.3626 296.8608 15.21092571 27161
TEVEL2-7
1 63238U 25052AE  25252.19802042  .00012284  00000-0  55585-3 0  9996
2 63238  97.4221 144.6602 0009815  63.3641 296.8599 15.21003558 27151
TEVEL2-8
1 63239U 25052AF  25251.60980435  .00013359  00000-0  60487-3 0  9996
2 63239  97.4226 144.0696 0009940  65.6654 294.5619 15.20961273 27066
HYDRA-W
1 63490U 25052BL  25252.18815249  .00033616  00000-0  12158-2 0  9998
2 63490  97.4166 145.6120 0012952  60.0483 300.2041 15.28280290 27226
HADES-ICM (SO-125)
1 63492U 25052BN  25251.18874903  .00034954  00000-0  12960-2 0  9998
2 63492  97.4181 144.5185 0013365  65.3259 294.9370 15.27448866 27062
